Home   Weather   Hamilton   Past weeks

Flag for Canada Past Weather in Hamilton, Ontario, Canada — Yesterday and Last 2 Weeks

Now
52 °F

Passing clouds.


Feels Like: 49 °F
Forecast: 52 / 62 °F
Wind: 7 mph from Northeast

Location: Hamilton Airport

Current Time: May 24, 2017 at 3:50:04 am

Latest Report: May 24, 2017 at 3:00 am


Visibility: 15 mi

Pressure: 29.71 "Hg

Humidity: 88%

Dew Point: 48 °F

Location of HamiltonLocation

Past Weather in Hamilton — Graph

°F

Hamilton Temperature Yesterday

Maximum temperature yesterday: 73 °F (at 5:00 pm)
Minimum temperature yesterday: 46 °F (at 2:00 am)
Average temperature yesterday: 60 °F

High & Low Weather Summary for the Past Weeks

 TemperatureHumidityPressure
High82 °F (May 17, 2:00 pm)100% (May 21, 8:00 am)30.34 "Hg (May 21, 8:00 am)
Low32 °F (May 9, 3:00 am)36% (May 9, 5:00 pm)29.69 "Hg (May 18, 7:00 pm)
Average54 °F72%29.97 "Hg
* Reported May 9 2:00 am — May 24 2:00 am, Hamilton. Weather by CustomWeather, © 2017

Note: Actual official high and low records may vary slightly from our data, if they occured in-between our weather recording intervals... More about our weather records

Advertising

Hamilton Weather History for the Previous 24 Hours

Scroll right to see more
 ConditionsComfort  
Time TempWeatherWind HumidityBarometerVisibility
2:00 am
Wed, May 24
54 °FPassing clouds.8 mph82%29.71 "Hg15 mi
1:00 am55 °FPartly cloudy.9 mph82%29.73 "Hg15 mi
12:00 am57 °FPassing clouds.8 mph77%29.75 "Hg15 mi
11:00 pm
Tue, May 23
57 °FPassing clouds.10 mph77%29.76 "Hg15 mi
10:00 pm57 °FPartly cloudy.10 mph77%29.77 "Hg15 mi
9:00 pm59 °FPassing clouds.9 mph72%29.77 "Hg15 mi
8:00 pm68 °FBroken clouds.3 mph53%29.76 "Hg15 mi
7:00 pm72 °FPartly sunny.3 mph41%29.77 "Hg15 mi
6:00 pm72 °FBroken clouds.7 mph47%29.78 "Hg15 mi
5:00 pm73 °FPartly sunny.7 mph44%29.79 "Hg15 mi
4:00 pm70 °FPartly sunny.10 mph57%29.81 "Hg15 mi
3:00 pm72 °FBroken clouds.8 mph50%29.82 "Hg15 mi
2:00 pm72 °FBroken clouds.9 mph50%29.85 "Hg15 mi
1:00 pm70 °FBroken clouds.10 mph53%29.86 "Hg15 mi
12:00 pm68 °FBroken clouds.14 mph56%29.88 "Hg15 mi
11:00 am66 °FPartly sunny.15 mph64%29.90 "Hg15 mi
10:00 am64 °FPartly sunny.10 mph64%29.90 "Hg15 mi
9:00 am61 °FPartly sunny.10 mph72%29.91 "Hg15 mi
8:00 am55 °FPartly sunny.7 mph88%29.91 "Hg15 mi
7:00 am50 °FPartly sunny.7 mph94%29.92 "Hg15 mi
6:00 am46 °FPartly sunny.5 mph93%29.92 "Hg15 mi
5:00 am48 °FPassing clouds.5 mph87%29.92 "Hg15 mi
4:00 am46 °FPassing clouds.6 mph93%29.94 "Hg15 mi
3:00 am46 °FPassing clouds.6 mph93%29.96 "Hg15 mi
Weather by CustomWeather, © 2017

See weather overviewHow to use our weather pages